Reflectivity
-20 -20 -20 -20 -20 11 -5 -18 -5 -4 -20 -20 -20 -20 -20 -20 -3 -11 5 -5 -20 -20 -20 -20 3 3 -15 -14 -20 -20 -20 -20 -20 -20 -20 -20 16 -20 -20 -20 3 -20 -17
-20 -20 -20 -20 -19 -4 -0 -3 1 -3 1 -19 -15 -20 -3 3 -19 -8 -16 -9 -5 -20 -14 4 -1 -3 0 -20 -20 -20 -20 -20 -20 -20 -20 -20 17 -20 -20 -20 -20 -11 17
-20 -20 -20 -20 -16 1 3 -5 -15 -20 -16 -18 -11 -20 -20 -19 -3 1 3 -20 -1 13 4 14 -2 -3 -20 -20 -20 -20 -20 -20 -20 -18 -20 -14 9 -20 -20 -20 -8 -5 -6
-20 -8 -20 -18 -0 2 10 -9 -20 -20 -5 -14 -6 -20 6 2 -2 -20 -16 -9 1 12 10 15 8 3 -20 -20 -20 -20 -20 -20 -20 -20 -20 16 -20 -19 -20 -20 -20 -20 -20
-3 -20 -14 -18 -17 9 10 10 -2 -20 -20 -20 -20 -20 9 1 -11 4 10 9 -4 -20 12 14 7 -20 -20 -20 -20 -20 -20 -20 -20 -20 -20 -5 -20 -20 -20 -20 -20 -1 -16
-20 -20 -20 -19 -20 -9 11 2 4 -18 -20 -20 -20 5 -13 -7 14 -0 12 -11 -20 -20 -13 -15 -20 -20 -20 -20 -20 -20 -20 -20 -20 -11 -20 -2 9 -20 -20 -20 -19 -20 -13
-20 -20 -20 -20 -20 -20 -19 -7 2 6 1 -1 13 -11 -20 3 15 16 -9 -3 -20 -20 -20 -20 -20 -20 -20 -20 -20 -20 -20 -20 -20 9 -20 12 -10 -20 -20 -16 -20 10 3
-20 -20 -20 10 5 -20 -20 -20 -4 -16 -20 -20 8 -0 -0 14 -3 -20 -18 -20 -20 -20 -20 -20 -20 -20 -20 -20 -20 -20 -20 -20 -20 -16 -20 -20 -20 -20 -10 -20 -6 1 18
-20 -20 19 -20 -15 30 6 -20 -19 -17 -20 3 19 13 15 8 -20 -20 -20 -20 -20 -20 -20 -20 -20 -20 -20 -20 -20 -20 -20 -20 -20 -20 -20 -20 -20 -20 -2 -14 11 9 7
-20 -20 -20 30 -20 -9 30 31 -3 -15 8 22 -9 13 10 -20 -20 -20 -20 -20 -20 -20 -20 -20 -20 -20 -20 -20 -20 -20 -20 -20 -20 -20 -20 -20 -20 17 22 -15 -20 10 11
-20 -20 -20 -20 9 -20 30 32 29 5 5 -12 2 -14 -20 -20 -20 -20 -20 -20 -20 -20 -20 -20 -20 -20 -20 -20 -20 -20 -20 -20 -20 -20 -20 -20 27 23 6 -6 0 -20 -20
-20 -20 -20 -20 -20 -20 18 27 -12 23 30 6 -13 -20 -20 -20 -20 -20 -20 -20 -20 -20 -20 -20 -20 -20 -20 -20 -20 -20 -20 -20 -20 -20 -20 23 22 9 -20 -16 -15 -20 -20
-20 -20 -20 -20 -20 -20 -15 29 25 25 25 25 -6 -20 -20 -20 -20 -20 -20 -20 -20 -20 -20 -20 -20 -20 -20 -20 -20 -20 -20 -20 -20 -20 16 20 14 6 -11 4 -6 -20 -20
-20 -20 -20 -20 -20 -20 -20 1 18 26 25 -15 -17 -20 -15 -20 -20 -20 -20 -20 -20 -20 -20 -20 -20 -20 -20 -20 -20 -20 -20 -20 -20 4 4 12 -3 15 -4 -15 -20 -20 -20
-20 -20 -20 -20 -20 -20 -20 -19 5 20 13 13 25 22 -15 -20 -20 -20 -20 -20 -20 -20 -20 -20 -20 -20 -20 -20 -20 -20 -20 -20 -20 13 7 16 11 9 -20 -20 -20 -20 -20
-20 -20 -20 -20 -20 -20 -20 -20 -20 11 26 30 18 25 9 3 -13 -20 -20 -20 -20 -20 -20 -20 -20 -20 -20 -20 -20 -20 -20 -20 -20 -19 -12 -4 10 -8 -20 -20 -20 -20 -20
-20 -20 -20 -20 -20 -20 -20 -20 -20 -20 -15 17 17 26 -18 21 7 -18 -20 -20 -20 -20 -20 -20 -20 -20 -20 -20 -20 -20 -20 -20 -20 -20 -20 -20 -20 -20 -20 -20 -20 -20 -20
-20 -20 -20 -20 -20 -20 -20 -20 -19 -20 -20 20 13 43 31 -13 -6 -20 -19 -20 -20 -20 -20 -20 -20 -20 -20 -20 -20 -20 -20 -20 -20 -20 -20 -20 -20 -20 -20 -20 -20 -20 -20
-20 -20 -20 -20 -20 -20 -20 -20 -16 11 -20 -20 -19 3 44 28 35 13 -20 -1 -20 -20 -20 -20 -20 -20 -20 -20 -20 -20 -20 -20 -20 -20 -20 -20 -20 -20 -20 -20 -20 -20 -20
-20 -20 -20 -20 -20 -20 -20 -20 -20 -20 -20 -20 -20 17 27 32 20 21 1 -12 -14 -20 -20 -20 -20 -20 -20 -20 -20 -20 -20 -20 -20 -20 -20 -20 -20 -20 -20 -20 -20 -20 -20
-20 -20 -20 -20 -20 -20 -20 -20 -20 -19 -20 -20 -20 -13 -20 5 32 38 31 24 -4 -20 -20 -20 -20 -20 -20 -20 -20 -20 -20 -20 -20 -20 -20 -20 -20 -20 -20 -20 -20 -20 -20
-20 -20 -20 -20 -20 -20 -20 -20 -20 -20 -20 -20 -20 -20 -20 -7 30 35 35 27 5 5 -20 -20 -20 -20 -20 -20 -20 -20 -20 -20 -20 -20 -20 -20 -20 -20 -20 -20 -20 -20 -20
-20 -20 -20 -20 -20 -20 -20 -20 -20 -20 -14 -20 -20 -20 -15 -17 15 22 30 33 -6 3 -12 -20 -20 -20 -20 -20 -20 -20 -20 -20 -20 -20 -20 -20 -20 -20 -20 -20 -20 -20 -20
-20 -20 -20 -20 -20 -20 -20 -20 -20 -20 -1 -20 -20 -20 -18 -19 -18 0 13 33 28 11 -15 -8 -13 -20 -18 -18 -20 -20 -20 -20 -20 -20 -20 -20 -20 -16 -20 -20 -20 -20 -20
-20 -20 -20 -20 -20 -20 -20 -20 -20 -20 -20 -20 -20 -20 -20 -20 -20 -19 8 15 31 17 10 6 -15 -20 -20 -17 -20 -20 -20 -20 -20 -20 -20 -14 -10 1 -7 -20 -20 -20 -20
-20 -20 -20 -20 -20 -7 -20 -20 -20 -20 -9 -20 -20 -20 -20 -20 -20 -6 -17 19 29 7 -1 1 -18 -18 -20 -11 -20 -20 -20 -20 -20 -15 -20 -19 -20 -20 -20 -20 -20 -20 -20
Wind_Speed
4 6 16 15 15 14 14 15 15 13 13 14 14 13 12 12 13 13 12 12 13 12 11 13 12 12 12 12 11 11 10 10 9 8 8 8 10 13 13 12 8 6 10
8 9 16 15 16 15 15 15 14 13 12 13 15 14 13 13 12 12 11 11 13 12 11 12 13 12 11 10 9 8 8 8 7 6 6 7 10 13 14 13 12 8 11
8 8 11 14 15 13 15 14 14 13 14 13 15 14 13 13 12 12 11 10 12 11 12 12 12 12 11 9 7 6 7 6 4 3 4 4 5 13 14 12 11 11 12
10 10 9 14 14 13 15 15 13 13 13 14 13 12 13 14 13 12 10 11 12 12 12 11 11 11 9 8 5 3 6 5 3 1 2 5 7 13 12 11 10 10 11
10 11 10 15 15 13 14 13 13 13 13 13 12 13 13 13 13 12 11 11 10 8 8 9 8 8 7 5 3 1 6 4 2 3 5 6 3 10 11 11 10 11 11
8 10 13 18 17 16 16 13 13 14 14 13 12 12 14 12 12 12 12 10 10 10 9 7 7 6 5 4 2 2 5 3 2 5 7 8 6 11 11 11 10 9 11
4 6 11 19 19 17 17 16 15 14 13 13 14 17 15 12 10 10 11 10 10 10 9 8 8 7 6 5 3 4 4 5 6 5 5 6 6 11 10 10 10 12 12
4 2 8 16 19 20 19 17 16 15 15 15 17 17 15 14 13 12 10 10 10 10 9 9 8 7 6 5 5 6 5 10 7 5 5 4 9 10 11 11 12 13 14
4 2 2 8 13 16 18 19 17 15 14 16 15 13 12 14 14 13 12 10 11 10 10 9 8 8 7 7 7 7 13 13 7 3 5 4 9 12 15 15 17 17 16
1 2 3 3 5 9 10 14 16 12 14 16 15 11 10 10 12 13 12 11 11 11 10 9 8 8 7 7 9 12 13 12 5 5 3 2 9 13 17 17 16 13 13
4 1 1 3 5 6 7 7 11 14 14 15 14 13 9 4 6 7 7 11 10 11 12 10 9 8 6 6 8 13 10 3 4 3 2 6 14 17 18 16 14 13 13
6 6 3 3 4 5 6 7 6 8 8 8 9 10 5 5 5 6 6 9 11 9 10 11 10 7 6 3 4 9 3 4 4 3 2 14 18 18 17 13 13 13 13
6 4 7 4 4 4 5 5 4 4 5 5 9 11 7 5 4 4 3 2 3 6 2 5 5 3 4 4 4 4 5 5 3 3 4 14 17 16 18 13 11 12 12
8 7 7 7 5 5 3 5 6 7 6 6 8 10 7 5 5 4 4 5 4 3 4 4 3 3 2 5 5 6 5 4 3 4 6 10 14 14 17 10 10 10 10
8 9 9 6 7 5 7 5 5 7 7 8 7 9 8 7 7 6 5 5 4 3 4 4 3 3 5 6 5 8 6 6 5 4 4 11 14 16 12 10 9 9 8
9 9 9 8 8 6 8 10 5 1 3 5 7 9 10 8 6 7 7 6 5 5 4 4 4 4 4 6 6 7 6 5 5 5 3 5 13 14 11 10 9 8 8
9 9 9 8 8 7 9 6 4 5 6 1 1 7 12 8 6 5 5 5 5 4 5 4 4 4 5 4 7 6 6 6 5 6 4 4 5 11 9 9 9 9 9
9 9 9 6 7 8 8 5 4 3 4 6 6 1 3 6 6 5 3 3 4 5 5 5 5 4 4 4 4 4 4 5 5 5 5 4 4 4 6 8 9 9 9
9 8 8 7 8 7 7 6 5 5 5 4 6 7 4 5 7 4 4 3 5 5 5 7 3 5 4 3 4 4 4 4 5 4 5 5 4 4 3 5 7 7 8
8 7 7 5 7 7 5 5 5 4 5 5 4 6 8 7 8 2 3 4 3 4 4 4 6 4 3 4 5 5 4 3 4 4 5 4 4 5 4 5 4 3 7
3 4 5 7 8 8 7 5 4 5 6 6 6 9 9 8 7 6 4 4 2 5 5 7 4 6 3 3 4 4 4 4 4 3 3 3 4 4 5 5 4 4 4
5 6 2 6 10 12 9 7 4 6 3 5 6 8 9 10 10 7 9 5 4 4 4 5 6 4 3 2 4 3 2 3 3 3 2 3 4 3 4 5 6 6 5
7 9 6 9 12 12 11 7 5 6 5 3 4 5 6 11 10 9 7 6 5 3 5 3 5 7 4 1 3 5 3 4 3 2 3 3 5 4 4 5 5 6 6
11 10 10 11 15 16 14 13 16 11 9 5 6 5 6 8 8 6 7 12 5 3 5 4 4 4 5 4 2 2 2 4 4 3 2 3 4 4 4 4 5 6 5
15 15 14 13 16 19 20 17 14 12 9 8 9 10 8 5 7 9 8 12 6 3 4 5 4 5 3 4 3 2 2 3 3 4 3 1 3 4 4 5 5 5 5
15 14 11 13 16 19 22 20 19 18 12 10 10 10 7 5 4 2 7 11 8 5 4 4 4 6 5 5 3 3 2 2 3 4 4 3 2 4 4 4 4 4 4
Wind_Direction
201 171 160 163 162 162 158 154 151 148 147 142 137 133 132 129 125 120 121 123 125 123 116 117 113 109 106 101 97 99 99 98 96 90 85 86 93 83 77 77 73 77 80
154 169 164 168 168 167 164 158 151 153 158 151 145 146 135 138 133 133 135 145 136 128 125 117 113 113 107 96 98 100 101 90 86 90 90 88 92 86 76 72 71 68 62
143 163 167 172 173 171 166 161 159 167 165 168 147 152 149 149 145 139 132 134 128 125 122 120 117 116 112 106 99 96 90 92 97 116 110 126 99 79 74 66 66 67 68
164 164 173 175 173 174 175 169 173 164 149 151 153 157 156 147 145 138 134 132 130 126 116 113 124 115 119 117 115 110 93 87 99 187 155 108 90 81 72 69 69 68 66
166 168 171 176 179 178 183 179 179 172 161 162 165 168 158 149 142 146 146 132 132 125 126 118 132 128 128 128 137 154 84 67 24 23 133 93 80 91 83 76 68 71 74
160 166 177 180 180 182 187 186 187 181 178 174 176 166 153 140 144 141 126 133 124 123 129 145 143 139 141 145 158 57 70 62 43 120 119 113 89 94 89 87 80 78 79
46 195 189 186 181 180 187 187 188 189 190 185 171 159 145 153 160 160 152 150 146 145 151 156 153 152 154 153 133 77 54 39 105 127 116 116 102 97 100 99 97 93 85
43 47 204 196 188 183 184 188 188 191 193 190 169 160 157 166 164 158 163 160 157 158 159 159 158 158 157 146 119 88 67 103 87 78 92 103 106 112 111 113 105 92 94
31 20 246 205 204 206 191 183 188 193 195 178 163 155 169 169 163 165 164 170 164 163 162 158 161 157 153 140 116 80 102 96 93 109 101 94 127 132 121 104 94 84 79
50 34 329 306 229 208 215 200 179 189 185 174 148 159 161 161 163 165 162 168 169 163 162 159 158 157 149 137 97 110 102 100 101 98 100 137 145 126 110 99 86 82 77
316 268 279 259 277 234 208 220 199 181 172 158 143 144 151 152 150 146 154 159 166 169 164 162 160 156 141 103 83 114 94 83 88 92 123 147 124 118 101 92 88 80 70
290 285 232 252 249 249 212 191 180 181 170 163 154 150 148 158 150 149 162 163 162 167 169 166 160 152 93 73 79 97 87 88 69 62 105 127 119 102 95 91 87 83 77
241 245 278 250 235 213 222 190 181 184 168 168 169 157 154 156 157 146 147 157 145 146 174 150 144 125 121 77 84 85 81 74 63 47 109 116 110 107 99 89 95 94 88
240 245 252 253 252 231 204 190 195 179 177 169 178 162 158 159 158 161 155 156 159 151 156 147 153 156 141 111 119 108 88 80 57 59 43 81 109 95 80 93 89 90 93
245 244 231 233 226 216 222 207 199 201 187 183 174 175 157 171 173 164 166 156 163 158 154 166 157 150 130 117 120 118 106 96 75 57 49 58 79 90 97 93 89 85 82
237 242 244 222 216 187 203 211 156 156 241 194 179 186 173 168 180 176 168 171 164 168 168 158 162 140 125 124 107 116 115 106 100 90 66 55 77 89 92 90 83 77 73
233 229 231 221 209 191 192 175 156 158 131 173 106 214 170 157 166 174 178 166 175 170 163 138 122 119 105 98 106 111 120 120 110 105 94 76 67 73 87 90 88 80 67
233 222 230 211 194 185 179 169 154 148 144 149 127 141 284 112 140 146 168 189 156 142 135 131 135 101 106 110 113 107 113 115 114 114 104 94 81 67 73 92 88 77 73
229 231 229 208 190 180 155 146 150 145 142 163 146 129 172 162 119 158 137 191 157 132 139 136 89 120 123 107 111 99 107 121 135 128 124 121 126 110 88 69 81 74 64
241 239 228 195 160 151 159 115 118 136 138 134 147 148 144 151 146 121 120 161 144 123 123 113 120 59 120 129 99 83 75 96 115 128 139 128 127 123 106 89 62 40 60
353 278 214 158 160 163 167 147 146 164 164 154 152 161 146 120 127 147 134 121 147 136 150 133 102 112 70 120 101 55 39 55 99 106 126 121 114 109 105 98 100 89 56
331 320 242 191 171 186 178 179 150 154 160 159 150 140 135 148 145 153 169 147 136 114 125 139 131 119 103 180 134 102 97 3 27 25 102 108 91 88 86 88 99 91 82
303 287 237 194 188 197 175 134 117 107 114 102 125 136 137 145 158 163 160 140 146 142 151 164 139 131 137 172 217 137 133 190 134 1 41 65 91 81 69 88 87 89 89
259 252 244 206 195 194 185 164 164 175 172 166 154 138 133 142 155 143 167 132 154 151 158 165 159 135 127 149 84 62 58 145 152 142 40 44 84 79 80 66 69 74 72
270 258 237 217 201 194 188 182 171 176 179 150 137 137 141 116 142 150 168 119 136 152 154 153 155 141 127 135 140 125 74 64 61 127 127 107 57 49 48 75 77 68 39
276 255 229 215 203 192 190 179 176 173 161 147 156 149 149 144 138 157 150 122 106 139 143 147 138 133 129 115 125 113 160 156 166 131 124 99 145 46 57 62 69 64 39